SCATSAT 1

Last updated on Sat Sep 12 2026 00:02:46 GMT+0000 (Coordinated Universal Time)

1 41790U 16059H 26254.43637720 .00000676 00000+0 95347-4 0 9993 2 41790 98.1112 319.0625 0053677 331.2653 28.5604 14.79698121114348
UTC large
Height (km)
Speed (km/s)
/
Latitude / Longitude
Inclination (degrees)
Orbital Period (minutes)
Azimuth
Elevation
Range (km)
Doppler Factor

Next 0 passes for location: London (51.5072 / 0.1276)

No passes found over London.
SCATSAT 1